This is the latest recevied weather packets stored in our database for station/object NO3U. If no packets are shown the sender has not sent any weather packets the latest 10 day(s).
| Time | Temp. | Humidity | Pressure | Rain* | Wind** | Luminosity | Snow |
|---|---|---|---|---|---|---|---|
| 1777477731 | 14.44° C | 98% | 1008.9 hPa | 0 mm | - | 156 W/m² | - |
| 1777477428 | 14.44° C | 98% | 1009 hPa | 0 mm | - | 132 W/m² | - |
| 1777477124 | 14.44° C | 98% | 1009.2 hPa | 0 mm | - | 125 W/m² | - |
| 1777476821 | 14.44° C | 99% | 1009.2 hPa | 0 mm | - | 108 W/m² | - |
| 1777476519 | 13.89° C | 98% | 1009.3 hPa | 0 mm | - | 114 W/m² | - |
| 1777476214 | 13.89° C | 99% | 1009.4 hPa | 0 mm | - | 94 W/m² | - |
| 1777475910 | 13.89° C | 99% | 1009.4 hPa | 0 mm | - | 112 W/m² | - |
| 1777475607 | 13.89° C | 99% | 1009.5 hPa | 0 mm | - | 114 W/m² | - |
| 1777475303 | 13.89° C | 99% | 1009.5 hPa | 0 mm | - | 97 W/m² | - |
| 1777474998 | 13.89° C | 99% | 1009.5 hPa | 0 mm | - | 120 W/m² | - |
| 1777474696 | 13.89° C | 99% | 1009.6 hPa | 0 mm | - | 92 W/m² | - |
| 1777474392 | 13.89° C | 99% | 1009.7 hPa | 0 mm | - | 61 W/m² | - |
| 1777474088 | 13.33° C | 99% | 1009.7 hPa | 0 mm | - | 90 W/m² | - |
| 1777473786 | 13.33° C | 99% | 1009.7 hPa | 0 mm | - | 72 W/m² | - |
| 1777473483 | 13.33° C | 99% | 1009.8 hPa | 0 mm | - | 69 W/m² | - |
| 1777473178 | 13.33° C | 99% | 1009.9 hPa | 0 mm | - | 54 W/m² | - |
| 1777472875 | 13.33° C | 99% | 1010 hPa | 0 mm | - | 58 W/m² | - |
| 1777472571 | 13.33° C | 99% | 1010 hPa | 0 mm | - | 50 W/m² | - |
| 1777472268 | 12.78° C | 99% | 1009.8 hPa | 0 mm | - | 51 W/m² | - |
| 1777471963 | 13.33° C | 99% | 1009.7 hPa | 0 mm | - | 49 W/m² | - |
| 1777471660 | 12.78° C | 99% | 1009.8 hPa | 0 mm | - | 41 W/m² | - |
| 1777471357 | 13.33° C | 99% | 1010 hPa | 1.78 mm | - | 38 W/m² | - |
| 1777471054 | 13.33° C | 99% | 1009.9 hPa | 1.78 mm | - | 37 W/m² | - |
| 1777470750 | 13.33° C | 99% | 1010.2 hPa | 0 mm | - | 29 W/m² | - |
| 1777470447 | 13.33° C | 99% | 1010.5 hPa | 0 mm | - | 34 W/m² | - |
* Rain latest hour (hover to see other rain measurements)
** Current wind speed in m/s (hover to see current wind gust speed)